Location: Newark
(12.4436°N, 0.6167°W)
Time: 20:10:23
(UTC+00:00)

S-56A Canister/Altair - Visible Passes

Search period start: 05 December 2019 00:00
Search period end: 15 December 2019 00:00
Orbit: 633 x 2499 km, 38.9° (Epoch: 04 December)

Date Brightness Start Highest point End Pass type
(mag) Time Alt. Az. Time Alt. Az. Time Alt. Az.
05 Dec 8.1 19:07:51 10° NW 19:16:41 88° NE 19:19:39 34° SE visible
06 Dec 8.3 18:34:18 10° NW 18:43:53 75° NE 18:50:00 10° ESE visible
06 Dec 10.3 20:43:15 10° W 20:47:10 16° SW 20:47:33 16° SW visible
07 Dec 8.6 18:00:44 10° NW 18:10:58 65° NE 18:17:35 10° ESE visible
07 Dec 10.1 20:08:58 10° W 20:14:38 22° SW 20:18:05 14° S visible
08 Dec 9.9 19:34:55 10° WNW 19:42:03 30° SW 19:47:15 10° S visible
09 Dec 9.7 19:00:58 10° WNW 19:09:26 39° SW 19:15:16 10° SSE visible
10 Dec 11.3 05:41:32 10° S 05:48:49 24° SE 05:58:07 10° E visible
10 Dec 9.6 18:27:03 10° WNW 18:36:44 49° SW 18:43:10 10° SSE visible
11 Dec 11.3 05:09:57 10° SSE 05:15:51 18° SE 05:23:08 10° E visible
11 Dec 9.4 17:53:10 10° WNW 18:03:56 61° SW 18:10:57 10° SE visible
12 Dec 11.5 04:39:01 10° SSE 04:42:58 13° SE 04:47:31 10° ESE visible
12 Dec 11.2 19:32:01 10° WSW 19:34:20 11° SW 19:36:27 10° SW visible
13 Dec 11.0 18:56:16 10° W 19:01:39 16° SW 19:06:02 10° SSW visible
14 Dec 10.3 05:32:42 10° SSW 05:40:49 48° SE 05:52:37 10° ENE visible
14 Dec 10.9 18:21:27 10° W 18:28:55 22° SW 18:34:38 10° S visible
